Location: Marcé
(47.5801°N, 0.3280°W)
Time: 17:10:02
(UTC+01:00)

SR - Pass Details

Date: 06 December 2021
Orbit: 582 x 872 km, 66.7° (Epoch: 22 January)

Event Time Altitude Azimuth Distance (km) Brightness Sun altitude
Rises 23:48:02 0° 208° (SSW) 2,973 - -61.9°
Reaches altitude 10° 23:50:24 10° 206° (SSW) 2,025 - -62.1°
Maximum altitude 23:54:54 74° 123° (ESE) 639 - -62.5°
Drops below altitude 10° 23:59:13 10° 38° (NE) 1,930 - -62.8°
Sets 00:01:25 0° 36° (NE) 2,821 - -63.0°
